Weather History for O'Neill, NE

Change the Weather History Date:

Saturday, October 4, 2014

  Actual Average Record
Temperature  
Mean Temperature 42 °F -  
Max Temperature 56 °F 69 °F 89 °F (2011)
Min Temperature 29 °F 42 °F 26 °F (1953)
Degree Days  
Heating Degree Days 22    
Moisture  
Dew Point 29 °F    
Average Humidity 61    
Maximum Humidity 86    
Minimum Humidity 35    
Precipitation  
Precipitation 0.00 in - - ()
Sea Level Pressure  
Sea Level Pressure 29.98 in    
Wind  
Wind Speed 7 mph (WNW)    
Max Wind Speed 13 mph    
Max Gust Speed 17 mph    
Visibility 10 miles    
Events      
Averages and records for this station are not official NWS values.
T = Trace of Precipitation, MM = Missing Value Source: NWS Daily Summary

Daily Weather History Graph

Daily Weather History Graph

Search for Another Location

Airport:

Trip Planner

Search our weather history database for the weather conditions in past years. The results will help you decide how hot, cold, wet, or windy it might be!

Date:

Astronomy

Oct. 04, 2014 Rise Set
Actual Time 7:35 AM CDT 7:10 PM CDT
Civil Twilight 7:07 AM CDT 7:38 PM CDT
Nautical Twilight 6:34 AM CDT 8:11 PM CDT
Astronomical Twilight 6:01 AM CDT 8:44 PM CDT
Moon 4:53 PM CDT (10/4) 2:59 AM CDT (10/4)
Length of Visible Light 12h 31m
Length of Day
11h 35m
Waxing Gibbous, 81% of the Moon is Illuminated
Oct 4
Waxing Gibbous
Oct 8
Full
Oct 15
Last Quarter
Oct 23
New
Oct 30
First Quarter

Hourly Weather History & Observations

Time (CDT) Temp. Windchill Dew Point Humidity Pressure Visibility Wind Dir Wind Speed Gust Speed Precip Events Conditions
12:15 AM 32.0 °F 26.4 °F 27.5 °F 83% 30.13 in 10.0 mi West 5.8 mph - N/A   Clear
12:35 AM 32.0 °F 26.4 °F 27.5 °F 83% 30.12 in 10.0 mi West 5.8 mph - N/A   Clear
12:55 AM 32.2 °F 26.7 °F 27.5 °F 83% 30.12 in 10.0 mi West 5.8 mph - N/A   Clear
1:15 AM 33.6 °F 26.8 °F 27.3 °F 78% 30.11 in 10.0 mi WNW 8.1 mph - N/A   Clear
1:35 AM 34.3 °F 27.0 °F 26.6 °F 73% 30.10 in 10.0 mi WNW 9.2 mph - N/A   Clear
1:55 AM 35.4 °F 27.8 °F 26.2 °F 69% 30.10 in 10.0 mi WNW 10.4 mph - N/A   Clear
2:15 AM 35.6 °F 29.2 °F 26.1 °F 68% 30.10 in 10.0 mi WNW 8.1 mph - N/A   Clear
2:35 AM 34.0 °F 27.2 °F 27.3 °F 77% 30.10 in 10.0 mi West 8.1 mph - N/A   Clear
2:55 AM 34.0 °F 26.6 °F 26.6 °F 74% 30.10 in 10.0 mi WNW 9.2 mph - N/A   Clear
3:15 AM 33.8 °F 25.8 °F 26.6 °F 75% 30.10 in 10.0 mi WNW 10.4 mph - N/A   Clear
3:35 AM 32.9 °F 25.9 °F 26.6 °F 78% 30.09 in 10.0 mi West 8.1 mph - N/A   Clear
3:55 AM 32.5 °F 25.5 °F 26.2 °F 78% 30.09 in 10.0 mi WNW 8.1 mph - N/A   Clear
4:15 AM 33.1 °F 26.1 °F 25.7 °F 74% 30.08 in 10.0 mi WNW 8.1 mph - N/A   Clear
4:35 AM 32.7 °F 25.7 °F 25.7 °F 75% 30.08 in 10.0 mi NW 8.1 mph - N/A   Clear
4:55 AM 32.2 °F 25.0 °F 25.5 °F 76% 30.08 in 10.0 mi NW 8.1 mph - N/A   Clear
5:15 AM 32.5 °F 24.2 °F 25.5 °F 75% 30.08 in 10.0 mi NW 10.4 mph - N/A   Clear
5:35 AM 32.9 °F 25.9 °F 25.5 °F 74% 30.08 in 10.0 mi NW 8.1 mph - N/A   Clear
5:55 AM 32.0 °F 24.8 °F 25.5 °F 77% 30.07 in 10.0 mi WNW 8.1 mph - N/A   Clear
6:15 AM 32.0 °F 26.4 °F 25.3 °F 76% 30.07 in 10.0 mi WNW 5.8 mph - N/A   Clear
6:35 AM 31.1 °F 26.4 °F 25.5 °F 80% 30.08 in 10.0 mi West 4.6 mph - N/A   Clear
6:55 AM 30.4 °F 25.6 °F 25.7 °F 83% 30.07 in 10.0 mi West 4.6 mph - N/A   Clear
7:15 AM 29.3 °F 23.2 °F 25.7 °F 86% 30.07 in 10.0 mi West 5.8 mph - N/A   Clear
7:35 AM 29.8 °F 26.3 °F 26.1 °F 86% 30.07 in 10.0 mi SW 3.5 mph - N/A   Clear
7:55 AM 30.6 °F 25.8 °F 26.6 °F 85% 30.07 in 10.0 mi West 4.6 mph - N/A   Clear
8:15 AM 32.7 °F 27.3 °F 28.6 °F 85% 30.07 in 10.0 mi West 5.8 mph - N/A   Clear
8:35 AM 36.1 °F 29.9 °F 28.9 °F 75% 30.07 in 10.0 mi WNW 8.1 mph - N/A   Clear
8:55 AM 36.9 °F 30.7 °F 28.4 °F 71% 30.07 in 10.0 mi WNW 8.1 mph - N/A   Clear
9:15 AM 38.3 °F 32.5 °F 27.9 °F 66% 30.07 in 10.0 mi NW 8.1 mph - N/A   Clear
9:35 AM 38.8 °F 33.2 °F 27.5 °F 64% 30.07 in 10.0 mi WNW 8.1 mph - N/A   Clear
9:55 AM 41.0 °F 35.8 °F 27.1 °F 58% 30.06 in 10.0 mi NW 8.1 mph - N/A   Clear
10:15 AM 42.3 °F 36.3 °F 25.7 °F 52% 30.06 in 10.0 mi NNW 10.4 mph - N/A   Clear
10:35 AM 43.7 °F 37.7 °F 25.5 °F 49% 30.06 in 10.0 mi NW 11.5 mph - N/A   Clear
10:55 AM 44.1 °F 39.0 °F 25.3 °F 48% 30.05 in 10.0 mi West 9.2 mph - N/A   Clear
11:15 AM 45.5 °F 41.3 °F 25.7 °F 46% 30.04 in 10.0 mi NW 8.1 mph - N/A   Clear
11:35 AM 46.6 °F - 25.3 °F 43% 30.04 in 10.0 mi WNW 8.1 mph - N/A   Clear
11:55 AM 47.7 °F - 25.5 °F 42% 30.04 in 10.0 mi West 10.4 mph - N/A   Scattered Clouds
12:15 PM 47.8 °F - 26.2 °F 43% 30.02 in 10.0 mi WNW 8.1 mph - N/A   Scattered Clouds
12:35 PM 48.2 °F - 25.7 °F 42% 30.02 in 10.0 mi NW 9.2 mph - N/A   Scattered Clouds
12:55 PM 49.6 °F - 26.8 °F 41% 30.00 in 10.0 mi WNW 6.9 mph 16.1 mph N/A   Scattered Clouds
1:15 PM 48.9 °F - 27.9 °F 44% 30.00 in 10.0 mi WNW 9.2 mph - N/A   Mostly Cloudy
1:55 PM 49.3 °F - 26.8 °F 42% 29.98 in 10.0 mi West 8.1 mph - N/A   Overcast
2:15 PM 50.0 °F - 28.4 °F 43% 29.97 in 10.0 mi West 12.7 mph 16.1 mph N/A   Overcast
2:35 PM 50.4 °F - 27.7 °F 42% 29.95 in 10.0 mi WSW 9.2 mph - N/A   Overcast
2:55 PM 51.4 °F - 29.1 °F 42% 29.95 in 10.0 mi West 10.4 mph - N/A   Overcast
3:15 PM 52.5 °F - 28.9 °F 40% 29.95 in 10.0 mi West 8.1 mph - N/A   Overcast
3:35 PM 54.0 °F - 29.7 °F 39% 29.93 in 10.0 mi West 8.1 mph - N/A   Overcast
3:55 PM 53.8 °F - 28.9 °F 39% 29.92 in 10.0 mi WNW 9.2 mph 17.3 mph N/A   Overcast
4:15 PM 55.0 °F - 29.7 °F 38% 29.90 in 10.0 mi West 6.9 mph - N/A   Scattered Clouds
4:35 PM 55.6 °F - 30.0 °F 38% 29.90 in 10.0 mi WNW 9.2 mph 17.3 mph N/A   Clear
4:55 PM 55.8 °F - 29.8 °F 37% 29.90 in 10.0 mi West 6.9 mph 16.1 mph N/A   Clear
5:15 PM 55.8 °F - 29.5 °F 37% 29.89 in 10.0 mi WNW 9.2 mph - N/A   Mostly Cloudy
5:35 PM 55.4 °F - 29.3 °F 37% 29.88 in 10.0 mi WNW 5.8 mph - N/A   Overcast
5:55 PM 56.1 °F - 28.9 °F 35% 29.87 in 10.0 mi NW 5.8 mph - N/A   Mostly Cloudy
6:15 PM 55.0 °F - 30.4 °F 39% 29.86 in 10.0 mi NNW 4.6 mph - N/A   Scattered Clouds
6:35 PM 52.9 °F - 31.6 °F 44% 29.85 in 10.0 mi Calm Calm - N/A   Clear
6:55 PM 52.0 °F - 30.2 °F 43% 29.85 in 10.0 mi North 3.5 mph - N/A   Scattered Clouds
7:15 PM 50.5 °F - 31.8 °F 49% 29.85 in 10.0 mi North 4.6 mph - N/A   Mostly Cloudy
7:35 PM 50.9 °F - 32.9 °F 50% 29.85 in 10.0 mi North 6.9 mph - N/A   Overcast
7:55 PM 50.4 °F - 32.9 °F 51% 29.85 in 10.0 mi North 3.5 mph - N/A   Overcast
8:15 PM 49.3 °F - 34.2 °F 56% 29.85 in 10.0 mi Calm Calm - N/A   Overcast
8:35 PM 50.0 °F - 33.8 °F 54% 29.84 in 10.0 mi Calm Calm - N/A   Overcast
8:55 PM 48.0 °F - 35.1 °F 61% 29.83 in 10.0 mi Calm Calm - N/A   Mostly Cloudy
9:15 PM 47.7 °F - 33.6 °F 58% 29.83 in 10.0 mi Calm Calm - N/A   Clear
9:35 PM 44.6 °F - 33.8 °F 66% 29.82 in 10.0 mi Calm Calm - N/A   Clear
9:55 PM 44.8 °F - 34.7 °F 68% 29.82 in 10.0 mi Calm Calm - N/A   Clear
10:15 PM 43.0 °F 39.5 °F 34.9 °F 73% 29.81 in 10.0 mi South 5.8 mph - N/A   Mostly Cloudy
10:35 PM 43.0 °F 39.5 °F 38.3 °F 84% 29.81 in 10.0 mi SSW 5.8 mph - N/A   Overcast
10:55 PM 43.0 °F 41.3 °F 37.4 °F 81% 29.80 in 10.0 mi SSW 3.5 mph - N/A   Overcast
11:15 PM 43.9 °F 42.3 °F 37.6 °F 78% 29.79 in 10.0 mi SW 3.5 mph - N/A   Overcast
11:35 PM 46.2 °F 42.7 °F 36.7 °F 69% 29.78 in 10.0 mi SSW 6.9 mph - N/A   Overcast
11:55 PM 46.9 °F - 35.6 °F 65% 29.77 in 10.0 mi SSW 9.2 mph - N/A   Overcast